GLD1794 HUJI-HKKI

Flight info

Callsign GLD1794
Flight time 0h 35m
Altitude 11000
Route UTOLO
Aircraft BE58/L-SDFGRY/C

Departure

Time 2026-05-09 12:36
Airport Jinja Airport (HUJI)

Arrival

Time 2026-05-09 13:12
Airport Kisumu International Airport (HKKI)
Time Latitude Longitude Altitude Speed Heading
2026-05-09 12:31 0.45179 33.19269 3866 ft 0 kts 126°
2026-05-09 12:35 0.45178 33.19270 3866 ft 2 kts 121°
2026-05-09 12:35 0.45212 33.19313 3867 ft 13 kts 33°
2026-05-09 12:35 0.45256 33.19375 3868 ft 17 kts 130°
2026-05-09 12:36 0.45056 33.19643 3869 ft 77 kts 125°
2026-05-09 12:36 0.44647 33.20175 3938 ft 108 kts 131°
2026-05-09 12:36 0.44152 33.20792 4112 ft 120 kts 131°
2026-05-09 12:36 0.43646 33.21431 4458 ft 115 kts 131°
2026-05-09 12:37 0.43163 33.22047 4844 ft 113 kts 137°
2026-05-09 12:37 0.42525 33.22470 5255 ft 110 kts 149°
2026-05-09 12:37 0.41846 33.22937 5475 ft 129 kts 146°
2026-05-09 12:37 0.41064 33.23493 5701 ft 145 kts 144°
2026-05-09 12:38 0.40235 33.24102 5976 ft 150 kts 143°
2026-05-09 12:38 0.39372 33.24741 6195 ft 158 kts 143°
2026-05-09 12:38 0.38491 33.25395 6396 ft 157 kts 143°
2026-05-09 12:38 0.37618 33.26043 6589 ft 156 kts 143°
2026-05-09 12:39 0.36838 33.26781 6766 ft 155 kts 116°
2026-05-09 12:39 0.36582 33.27809 6957 ft 152 kts 99°
2026-05-09 12:39 0.36365 33.28840 7142 ft 151 kts 103°
2026-05-09 12:39 0.36103 33.29855 7328 ft 150 kts 105°
2026-05-09 12:40 0.35828 33.30860 7517 ft 150 kts 105°
2026-05-09 12:40 0.35550 33.31862 7704 ft 149 kts 105°
2026-05-09 12:40 0.35273 33.32858 7892 ft 149 kts 105°
2026-05-09 12:40 0.34994 33.33858 8083 ft 148 kts 106°
2026-05-09 12:41 0.34718 33.34850 8266 ft 148 kts 106°
2026-05-09 12:41 0.34442 33.35840 8467 ft 148 kts 106°
2026-05-09 12:41 0.34171 33.36816 8662 ft 148 kts 106°
2026-05-09 12:41 0.33894 33.37805 8853 ft 148 kts 106°
2026-05-09 12:42 0.33617 33.38799 8995 ft 152 kts 106°
2026-05-09 12:42 0.33319 33.39861 9011 ft 166 kts 107°
2026-05-09 12:42 0.33001 33.41006 9012 ft 176 kts 106°
2026-05-09 12:42 0.32663 33.42222 9012 ft 186 kts 106°
2026-05-09 12:43 0.32308 33.43494 9012 ft 193 kts 106°
2026-05-09 12:43 0.31943 33.44805 9010 ft 198 kts 106°
2026-05-09 12:43 0.31571 33.46140 9009 ft 201 kts 107°
2026-05-09 12:43 0.31194 33.47490 9005 ft 204 kts 107°
2026-05-09 12:44 0.30812 33.48859 9012 ft 205 kts 106°
2026-05-09 12:44 0.30430 33.50238 9009 ft 207 kts 107°
2026-05-09 12:44 0.30042 33.51630 9008 ft 208 kts 107°
2026-05-09 12:44 0.29655 33.53021 9008 ft 207 kts 107°
2026-05-09 12:45 0.29267 33.54408 9008 ft 208 kts 107°
2026-05-09 12:45 0.28879 33.55796 9010 ft 208 kts 107°
2026-05-09 12:45 0.28492 33.57187 9007 ft 209 kts 107°
2026-05-09 12:45 0.28102 33.58585 9005 ft 209 kts 106°
2026-05-09 12:46 0.27713 33.59986 9007 ft 209 kts 107°
2026-05-09 12:46 0.27323 33.61386 9007 ft 209 kts 107°
2026-05-09 12:46 0.26934 33.62784 9007 ft 209 kts 107°
2026-05-09 12:46 0.26543 33.64181 9006 ft 208 kts 107°
2026-05-09 12:47 0.26155 33.65575 9008 ft 208 kts 106°
2026-05-09 12:47 0.25767 33.66967 9008 ft 208 kts 106°
2026-05-09 12:47 0.25378 33.68362 9010 ft 209 kts 106°
2026-05-09 12:47 0.24989 33.69759 9007 ft 209 kts 107°
2026-05-09 12:48 0.24598 33.71160 9003 ft 209 kts 107°
2026-05-09 12:48 0.24213 33.72544 9001 ft 209 kts 107°
2026-05-09 12:48 0.23823 33.73945 9003 ft 210 kts 107°
2026-05-09 12:48 0.23431 33.75348 9006 ft 210 kts 107°
2026-05-09 12:49 0.23038 33.76756 9005 ft 211 kts 107°
2026-05-09 12:49 0.22647 33.78166 9006 ft 211 kts 107°
2026-05-09 12:49 0.22253 33.79577 9005 ft 211 kts 107°
2026-05-09 12:49 0.21859 33.80987 9006 ft 211 kts 107°
2026-05-09 12:50 0.21465 33.82403 9010 ft 212 kts 107°
2026-05-09 12:50 0.21070 33.83820 9010 ft 212 kts 107°
2026-05-09 12:50 0.20674 33.85240 9012 ft 212 kts 107°
2026-05-09 12:50 0.20280 33.86656 9011 ft 212 kts 107°
2026-05-09 12:51 0.19885 33.88075 9007 ft 212 kts 107°
2026-05-09 12:51 0.19489 33.89492 9007 ft 211 kts 107°
2026-05-09 12:51 0.19095 33.90906 9006 ft 211 kts 107°
2026-05-09 12:51 0.18702 33.92317 9005 ft 211 kts 107°
2026-05-09 12:52 0.18310 33.93725 9005 ft 210 kts 107°
2026-05-09 12:52 0.17919 33.95128 9004 ft 210 kts 107°
2026-05-09 12:52 0.17528 33.96531 9004 ft 210 kts 106°
2026-05-09 12:52 0.17135 33.97941 9005 ft 211 kts 107°
2026-05-09 12:53 0.16740 33.99356 9003 ft 211 kts 107°
2026-05-09 12:53 0.16345 34.00772 9004 ft 212 kts 107°
2026-05-09 12:53 0.15950 34.02190 9005 ft 212 kts 107°
2026-05-09 12:53 0.15556 34.03609 9006 ft 212 kts 106°
2026-05-09 12:54 0.15159 34.05030 9006 ft 212 kts 107°
2026-05-09 12:54 0.14762 34.06451 9005 ft 212 kts 106°
2026-05-09 12:54 0.14373 34.07851 9005 ft 212 kts 107°
2026-05-09 12:54 0.13972 34.09289 9005 ft 212 kts 106°
2026-05-09 12:55 0.13582 34.10689 9005 ft 212 kts 106°
2026-05-09 12:55 0.13186 34.12109 9008 ft 212 kts 106°
2026-05-09 12:55 0.12790 34.13530 9008 ft 212 kts 107°
2026-05-09 12:55 0.12395 34.14949 9004 ft 212 kts 107°
2026-05-09 12:56 0.12000 34.16365 9004 ft 211 kts 107°
2026-05-09 12:56 0.11605 34.17780 9004 ft 211 kts 107°
2026-05-09 12:56 0.11211 34.19195 9004 ft 211 kts 106°
2026-05-09 12:56 0.10817 34.20608 9005 ft 211 kts 107°
2026-05-09 12:57 0.10423 34.22022 9000 ft 211 kts 107°
2026-05-09 12:57 0.10029 34.23436 9000 ft 212 kts 106°
2026-05-09 12:57 0.09633 34.24856 9000 ft 212 kts 106°
2026-05-09 12:57 0.09237 34.26276 9001 ft 212 kts 106°
2026-05-09 12:58 0.08841 34.27700 9002 ft 213 kts 106°
2026-05-09 12:58 0.08442 34.29130 9002 ft 214 kts 106°
2026-05-09 12:58 0.08043 34.30562 9001 ft 214 kts 107°
2026-05-09 12:58 0.07645 34.31989 9002 ft 213 kts 106°
2026-05-09 12:59 0.07247 34.33416 9005 ft 213 kts 106°
2026-05-09 12:59 0.06984 34.34362 9006 ft 213 kts 106°
2026-05-09 12:59 0.06457 34.36252 9005 ft 213 kts 106°
2026-05-09 12:59 0.06058 34.37681 9006 ft 214 kts 106°
2026-05-09 13:00 0.05789 34.38646 9006 ft 214 kts 107°
2026-05-09 13:00 0.05390 34.40081 9005 ft 214 kts 107°
2026-05-09 13:00 0.04991 34.41510 9006 ft 214 kts 106°
2026-05-09 13:00 0.04597 34.42924 9006 ft 214 kts 106°
2026-05-09 13:01 0.04198 34.44355 9008 ft 214 kts 106°
2026-05-09 13:01 0.03797 34.45791 9007 ft 214 kts 106°
2026-05-09 13:01 0.03398 34.47227 9007 ft 214 kts 106°
2026-05-09 13:01 0.02998 34.48659 9009 ft 214 kts 106°
2026-05-09 13:02 0.02599 34.50093 9009 ft 214 kts 106°
2026-05-09 13:02 0.02198 34.51530 9008 ft 214 kts 106°
2026-05-09 13:02 0.01799 34.52961 9008 ft 214 kts 106°
2026-05-09 13:02 0.01400 34.54397 9008 ft 214 kts 106°
2026-05-09 13:03 0.01004 34.55812 8994 ft 204 kts 106°
2026-05-09 13:03 0.00640 34.57113 8977 ft 186 kts 106°
2026-05-09 13:03 0.00294 34.58357 8549 ft 186 kts 106°
2026-05-09 13:03 -0.00060 34.59584 8044 ft 189 kts 107°
2026-05-09 13:04 -0.00438 34.60880 7450 ft 198 kts 107°
2026-05-09 13:04 -0.00824 34.62218 6879 ft 202 kts 107°
2026-05-09 13:04 -0.01218 34.63581 6318 ft 205 kts 107°
2026-05-09 13:04 -0.01613 34.64944 5931 ft 198 kts 107°
2026-05-09 13:05 -0.01993 34.66271 5971 ft 201 kts 107°
2026-05-09 13:05 -0.02382 34.67620 5966 ft 202 kts 107°
2026-05-09 13:05 -0.02743 34.68984 6046 ft 205 kts 106°
2026-05-09 13:05 -0.03117 34.70377 5938 ft 210 kts 107°
2026-05-09 13:06 -0.03503 34.71791 5797 ft 206 kts 106°
2026-05-09 13:06 -0.03858 34.73100 5640 ft 186 kts 105°
2026-05-09 13:06 -0.04187 34.74309 5495 ft 174 kts 108°
2026-05-09 13:06 -0.04583 34.75367 5475 ft 155 kts 131°
2026-05-09 13:07 -0.05381 34.75946 5476 ft 133 kts 165°
2026-05-09 13:07 -0.06243 34.76025 5404 ft 127 kts 192°
2026-05-09 13:07 -0.07110 34.75894 5469 ft 119 kts 191°
2026-05-09 13:07 -0.07944 34.75621 5235 ft 133 kts 220°
2026-05-09 13:08 -0.08590 34.75052 5231 ft 118 kts 223°
2026-05-09 13:08 -0.09220 34.74517 5056 ft 119 kts 221°
2026-05-09 13:08 -0.09885 34.74122 5153 ft 110 kts 193°
2026-05-09 13:08 -0.10596 34.74303 5164 ft 113 kts 145°
2026-05-09 13:09 -0.10982 34.75010 5118 ft 122 kts 101°
2026-05-09 13:09 -0.10945 34.75844 5166 ft 118 kts 82°
2026-05-09 13:09 -0.10654 34.76627 5173 ft 120 kts 56°
2026-05-09 13:09 -0.10103 34.77277 5132 ft 128 kts 36°
2026-05-09 13:10 -0.09284 34.77528 5052 ft 122 kts 352°
2026-05-09 13:10 -0.08490 34.77332 4843 ft 118 kts 325°
2026-05-09 13:10 -0.07871 34.76825 4693 ft 114 kts 300°
2026-05-09 13:10 -0.07526 34.76116 4501 ft 111 kts 276°
2026-05-09 13:11 -0.07484 34.75388 4299 ft 103 kts 256°
2026-05-09 13:11 -0.07637 34.74695 4061 ft 100 kts 244°
2026-05-09 13:11 -0.07933 34.74092 3901 ft 95 kts 238°
2026-05-09 13:11 -0.08241 34.73525 3815 ft 92 kts 238°
2026-05-09 13:12 -0.08534 34.72990 3793 ft 83 kts 240°
2026-05-09 13:12 -0.08731 34.72625 3778 ft 18 kts 240°
2026-05-09 13:12 -0.08761 34.72578 3780 ft 8 kts 81°
2026-05-09 13:12 -0.08739 34.72611 3782 ft 7 kts 60°
2026-05-09 13:13 -0.08693 34.72694 3785 ft 19 kts 60°
2026-05-09 13:13 -0.08624 34.72812 3785 ft 16 kts 37°
2026-05-09 13:13 -0.08533 34.72804 3785 ft 12 kts 338°
2026-05-09 13:13 -0.08460 34.72795 3786 ft 13 kts 18°
2026-05-09 13:14 -0.08367 34.72845 3788 ft 15 kts 33°
2026-05-09 13:14 -0.08295 34.72897 3790 ft 10 kts 44°
2026-05-09 13:16 -0.08278 34.72916 3790 ft 0 kts 50°